FW5947 Weather Reports


time (UTC)temp
C
wind
direction
speed
KPH
gust
KPH
rain 1hr
cm
rain 24hr
cm
rain mn
cm
humidity
%
barometer
mb
20260505035035 17 153 1.6 3.2 0.00 0.00 0.00 60 995.1
20260505034018 17 172 3.2 4.8 0.00 0.00 0.00 58 995.4
20260505033008 18 204 6.4 9.7 0.00 0.00 0.00 56 994.9
20260505032013 18 201 9.7 16.1 0.00 0.00 0.00 51 995.3
20260505031018 17 170 3.2 4.8 0.00 0.00 0.00 50 995.2
20260505030043 17 151 3.2 4.8 0.00 0.00 0.00 51 995.3
20260505025014 16 163 3.2 4.8 0.00 0.00 0.00 52 995.0
20260505023043 13 175 0.0 0.0 0.00 0.00 0.00 59 995.1
20260505022044 13 175 0.0 0.0 0.00 0.00 0.00 61 995.1
20260505021006 14 172 0.0 0.0 0.00 0.00 0.00 60 995.3
20260505020031 14 173 0.0 0.0 0.00 0.00 0.00 59 995.5
20260505015035 14 193 1.6 3.2 0.00 0.00 0.00 59 995.6
20260505014012 15 180 0.0 0.0 0.00 0.00 0.00 59 995.6
20260505013040 14 180 0.0 0.0 0.00 0.00 0.00 60 995.5
20260505012028 14 180 0.0 0.0 0.00 0.00 0.00 61 995.3
20260505011014 15 179 1.6 3.2 0.00 0.00 0.00 58 995.2
20260505010031 15 180 1.6 3.2 0.00 0.00 0.00 56 995.2
20260505005046 16 180 1.6 3.2 0.00 0.00 0.00 54 995.2
20260505004022 16 179 0.0 0.0 0.00 0.00 0.00 54 995.1
20260505003007 17 178 0.0 0.0 0.00 0.00 0.00 50 995.2
20260505002010 18 165 0.0 0.0 0.00 0.00 0.00 48 995.2
20260505001022 18 164 0.0 0.0 0.00 0.00 0.00 46 995.0
20260505000002 19 157 0.0 0.0 0.00 0.00 0.00 46 994.9
20260504234046 20 167 0.0 0.0 0.00 0.00 0.00 41 994.9
20260504233012 20 157 1.6 3.2 0.00 0.00 0.00 39 995.0
20260504232026 21 181 0.0 0.0 0.00 0.00 0.00 39 994.9
20260504231031 21 161 0.0 0.0 0.00 0.00 0.00 39 994.9
20260504230006 21 168 0.0 0.0 0.00 0.00 0.00 37 994.8
20260504225017 21 130 3.2 4.8 0.00 0.00 0.00 36 994.7
20260504224027 22 252 4.8 4.8 0.00 0.00 0.00 37 994.6
20260504223018 22 166 4.8 4.8 0.00 0.00 0.00 36 994.7
20260504222026 22 147 1.6 3.2 0.00 0.00 0.00 35 994.8
20260504221033 22 176 3.2 3.2 0.00 0.00 0.00 34 994.9
20260504220045 22 211 6.4 9.7 0.00 0.00 0.00 36 994.7
20260504214022 22 219 3.2 4.8 0.00 0.00 0.00 36 995.0
20260504213034 22 211 3.2 8.0 0.00 0.00 0.00 36 995.0
20260504211024 23 169 6.4 8.0 0.00 0.00 0.00 36 995.1
20260504205025 23 5 4.8 6.4 0.00 0.00 0.00 38 994.9
20260504204034 23 134 1.6 3.2 0.00 0.00 0.00 37 995.3
20260504203026 23 236 6.4 9.7 0.00 0.00 0.00 36 995.5
20260504202024 22 192 4.8 8.0 0.00 0.00 0.00 36 995.3
20260504201016 22 137 6.4 6.4 0.00 0.00 0.00 37 995.8
20260504200030 23 255 4.8 4.8 0.00 0.00 0.00 42 995.6
20260504195046 23 234 3.2 4.8 0.00 0.00 0.00 37 995.8
20260504194017 23 267 4.8 6.4 0.00 0.00 0.00 38 995.9
20260504193039 23 152 1.6 3.2 0.00 0.00 0.00 40 996.1
20260504192021 23 277 3.2 4.8 0.00 0.00 0.00 43 996.1
20260504191017 21 196 8.0 16.1 0.00 0.00 0.00 41 996.4
20260504190044 22 224 8.0 14.5 0.00 0.00 0.00 42 996.4
20260504185042 22 176 1.6 3.2 0.00 0.00 0.00 48 996.7
20260504184016 22 220 3.2 4.8 0.00 0.00 0.00 45 996.8
20260504183031 22 322 4.8 8.0 0.00 0.00 0.00 49 996.7
20260504182015 22 175 3.2 4.8 0.00 0.00 0.00 47 997.0
20260504181038 22 139 3.2 6.4 0.00 0.00 0.00 46 996.9
20260504180044 21 293 4.8 6.4 0.00 0.00 0.00 47 996.9
20260504175017 22 225 4.8 8.0 0.00 0.00 0.00 46 997.1
20260504174028 22 340 6.4 9.7 0.00 0.00 0.00 51 997.3
20260504173005 21 229 6.4 8.0 0.00 0.00 0.00 47 997.2
20260504151010 17 248 8.0 11.3 0.00 0.00 0.00 50 998.4
20260504141025 17 310 6.4 8.0 0.00 0.00 0.00 52 998.1
20260504081028 10 179 4.8 6.4 0.00 0.00 0.00 59 999.5
20260504050001 10 134 3.2 4.8 0.00 0.00 0.00 59 1000.7
20260504045012 10 139 1.6 3.2 0.00 0.00 0.00 58 1000.6
20260504044025 11 179 0.0 0.0 0.00 0.00 0.00 58 1000.6
20260504043030 11 208 3.2 4.8 0.00 0.00 0.00 57 1000.9
20260504042028 11 177 1.6 3.2 0.00 0.00 0.00 57 1000.6
20260504041033 11 194 3.2 4.8 0.00 0.00 0.00 56 1000.8
20260504040033 11 152 3.2 4.8 0.00 0.00 0.00 56 1000.7